Flag for Canada Weather past 2 weeks in Longueuil, Quebec, Canada

Now
71 °F

Mild.


Feels Like: 74 °F
Forecast: N/A
Wind: 2 mph from Southwest

Location: Mc Tavish

Current Time: Jul 30, 2014 at 7:43:08 PM

Latest Report: Jul 30, 2014 at 7:00 PM


Visibility: N/A

Pressure: 29.94 "Hg

Humidity: 68%

Dew point: 60 °F

Location of LongueuilLocation

Historic Weather in Longueuil — Graph

°F

Longueuil temperature yesterday

Maximum temperature yesterday: 69 °F (at 6:00 PM)
Minimum temperature yesterday: 55 °F (at 6:00 AM)
Average temperature yesterday: 63 °F

Past Weeks' High & Low Weather Summary

 TemperatureHumidityPressure
High85 °F (Jul 21, 4:00 PM)98% (Jul 27, 7:00 AM)30.27 "Hg (Jul 27, 7:00 AM)
Low55 °F (Jul 29, 6:00 AM)31% (Jul 20, 6:00 PM)29.58 "Hg (Jul 27, 5:00 PM)
Average70 °F65%29.91 "Hg
* Reported Jul 15 6:00 PM — Jul 30 6:00 PM, Longueuil, Weather by CustomWeather, © 2014

Note: Actual official high and low records may vary slightly from our data, if they occured in-between our weather recording intervals... More about our weather records

Advertising

Longueuil weather history for previous 24 hours

 ConditionsComfort  
Time TempWeatherWind HumidityBarometerVisibility
6:00 PM
Jul 30
67 °FMild.2 mph77%29.94 "HgN/A
5:00 PM72 °FMild.2 mph54%29.93 "HgN/A
4:00 PM71 °FMild.3 mph59%29.93 "HgN/A
3:00 PM71 °FMild.2 mph56%29.94 "HgN/A
2:00 PM73 °FMild.2 mph49%29.95 "HgN/A
1:00 PM73 °FMild.5 mph51%29.96 "HgN/A
12:00 PM72 °FMild.3 mph51%29.98 "HgN/A
11:00 AM71 °FMild.3 mph58%29.99 "HgN/A
10:00 AM68 °FMild.5 mph58%30.00 "HgN/A
9:00 AM66 °FMild.3 mph66%30.00 "HgN/A
8:00 AM62 °FCool.2 mph74%29.99 "HgN/A
7:00 AM59 °FCool.5 mph76%29.99 "HgN/A
6:00 AM58 °FCool.3 mph83%29.98 "HgN/A
5:00 AM59 °FCool.5 mph84%29.96 "HgN/A
4:00 AM60 °FCool.5 mph83%29.95 "HgN/A
3:00 AM61 °FCool.6 mph84%29.94 "HgN/A
2:00 AM61 °FCool.6 mph81%29.94 "HgN/A
1:00 AM62 °FCool.5 mph73%29.93 "HgN/A
12:00 AM64 °FMild.3 mph65%29.93 "HgN/A
11:00 PM
Jul 29
63 °FMild.2 mph66%29.93 "HgN/A
10:00 PM64 °FMild.3 mph66%29.93 "HgN/A
9:00 PM64 °FMild.2 mph67%29.92 "HgN/A
8:00 PM64 °FMild.3 mph66%29.90 "HgN/A
7:00 PM67 °FMild.2 mph59%29.89 "HgN/A
Weather by CustomWeather, © 2014

See weather overviewHow to use our weather pages